INTELSAT 902 (IS-902)

Last updated on Fri Oct 11 2024 00:02:38 GMT+0000 (Coordinated Universal Time)

1 26900U 01039A 24284.39330588 -.00000275 00000+0 00000+0 0 9992 2 26900 4.5525 79.2307 0005041 136.3866 255.3798 1.00271934 84537
UTC large
Height (km)
Speed (km/s)
/
Latitude / Longitude
Inclination (degrees)
Orbital Period (minutes)
Azimuth
Elevation
Range (km)
Doppler Factor

Next 0 passes for location: London (51.5072 / 0.1276)

Sorry there are no passes over London.